TimeEST,TemperatureF,Dew PointF,Humidity,Sea Level PressureIn,VisibilityMPH,Wind Direction,Wind SpeedMPH,Gust SpeedMPH,PrecipitationIn,Events,Conditions,WindDirDegrees,DateUTC
12:15 AM,28.2,25.7,90,29.95,10.0,North,9.2,-,N/A,,Overcast,360,2013-03-06 05:15:00
12:34 AM,28.4,26.1,91,29.95,10.0,North,8.1,-,N/A,,Overcast,360,2013-03-06 05:34:00
12:55 AM,28.9,26.1,89,29.95,10.0,NNE,8.1,-,N/A,,Overcast,20,2013-03-06 05:55:00
1:15 AM,29.1,26.1,88,29.95,10.0,NNE,6.9,-,N/A,,Overcast,20,2013-03-06 06:15:00
1:34 AM,29.3,26.1,88,29.96,10.0,NNE,6.9,-,N/A,,Overcast,20,2013-03-06 06:34:00
1:55 AM,29.8,26.1,86,29.96,10.0,NNE,9.2,-,N/A,,Overcast,20,2013-03-06 06:55:00
2:15 AM,30.2,26.1,85,29.96,10.0,NNE,6.9,-,N/A,,Overcast,20,2013-03-06 07:15:00
2:34 AM,30.2,26.1,85,29.96,10.0,North,8.1,-,N/A,,Overcast,10,2013-03-06 07:34:00
2:55 AM,30.7,26.4,84,29.96,10.0,NNE,6.9,-,N/A,,Overcast,20,2013-03-06 07:55:00
3:15 AM,31.1,26.6,83,29.96,10.0,North,6.9,-,N/A,,Overcast,10,2013-03-06 08:15:00
3:34 AM,31.1,26.6,83,29.97,10.0,NNE,6.9,-,N/A,,Overcast,20,2013-03-06 08:34:00
3:55 AM,31.6,26.8,82,29.97,10.0,NNE,10.4,-,N/A,,Overcast,20,2013-03-06 08:55:00
4:15 AM,32.0,26.6,80,29.98,10.0,NE,10.4,-,N/A,,Overcast,40,2013-03-06 09:15:00
4:34 AM,32.0,26.6,80,29.98,10.0,NNE,11.5,16.1,N/A,,Overcast,30,2013-03-06 09:34:00
4:55 AM,32.0,26.6,80,29.99,10.0,NE,9.2,-,N/A,,Overcast,40,2013-03-06 09:55:00
5:15 AM,32.0,26.4,80,30.00,10.0,NE,11.5,18.4,N/A,,Overcast,50,2013-03-06 10:15:00
5:34 AM,32.0,26.2,79,30.01,10.0,NE,9.2,17.3,N/A,,Overcast,40,2013-03-06 10:34:00
5:55 AM,32.0,26.2,79,30.02,10.0,NNE,10.4,-,N/A,,Overcast,30,2013-03-06 10:55:00
6:15 AM,31.6,26.1,80,30.03,10.0,NE,8.1,-,N/A,,Mostly Cloudy,40,2013-03-06 11:15:00
6:34 AM,30.7,25.9,82,30.04,10.0,NNE,6.9,-,N/A,,Scattered Clouds,30,2013-03-06 11:34:00
6:55 AM,30.2,25.7,83,30.05,10.0,NNE,5.8,-,N/A,,Scattered Clouds,20,2013-03-06 11:55:00
7:15 AM,29.8,25.5,84,30.06,10.0,North,5.8,-,N/A,,Scattered Clouds,10,2013-03-06 12:15:00
7:34 AM,30.2,26.1,85,30.08,10.0,NNE,5.8,-,N/A,,Mostly Cloudy,20,2013-03-06 12:34:00
7:55 AM,31.1,26.6,83,30.09,10.0,NNE,5.8,-,N/A,,Overcast,20,2013-03-06 12:55:00
8:15 AM,32.0,27.5,83,30.09,10.0,NNE,9.2,-,N/A,,Overcast,20,2013-03-06 13:15:00
8:34 AM,32.2,28.2,85,30.10,10.0,NNE,8.1,-,N/A,,Overcast,20,2013-03-06 13:34:00
8:55 AM,32.9,28.4,84,30.11,10.0,NNE,6.9,-,N/A,,Overcast,20,2013-03-06 13:55:00
9:15 AM,33.3,28.6,83,30.11,10.0,NNE,10.4,-,N/A,,Overcast,30,2013-03-06 14:15:00
9:34 AM,33.4,28.4,82,30.11,10.0,NE,11.5,16.1,N/A,,Overcast,50,2013-03-06 14:34:00
9:55 AM,33.8,28.4,81,30.11,10.0,NE,11.5,-,N/A,,Overcast,40,2013-03-06 14:55:00
10:15 AM,34.0,28.2,79,30.11,10.0,ENE,10.4,-,N/A,,Overcast,60,2013-03-06 15:15:00
10:35 AM,34.3,28.2,78,30.11,10.0,ENE,13.8,-,N/A,,Overcast,70,2013-03-06 15:35:00
10:55 AM,34.9,28.2,77,30.11,10.0,NE,9.2,-,N/A,,Overcast,50,2013-03-06 15:55:00
11:14 AM,35.8,28.4,75,30.14,10.0,NNE,8.1,-,N/A,,Overcast,30,2013-03-06 16:14:00
11:35 AM,36.0,28.0,73,30.14,10.0,NNE,8.1,-,N/A,,Overcast,20,2013-03-06 16:35:00
11:55 AM,36.3,28.4,73,30.14,10.0,North,6.9,-,N/A,,Overcast,10,2013-03-06 16:55:00
12:14 PM,36.5,28.2,72,30.15,10.0,North,9.2,-,N/A,,Overcast,10,2013-03-06 17:14:00
12:35 PM,36.9,28.0,70,30.15,10.0,North,5.8,-,N/A,,Overcast,360,2013-03-06 17:35:00
12:55 PM,37.2,28.4,70,30.14,10.0,NNE,8.1,-,N/A,,Overcast,20,2013-03-06 17:55:00
1:14 PM,37.4,28.4,70,30.14,10.0,NNE,8.1,-,N/A,,Overcast,20,2013-03-06 18:14:00
1:35 PM,37.9,28.4,69,30.13,10.0,North,9.2,-,N/A,,Mostly Cloudy,10,2013-03-06 18:35:00
1:55 PM,37.9,28.2,68,30.13,10.0,North,6.9,-,N/A,,Mostly Cloudy,350,2013-03-06 18:55:00
2:14 PM,38.3,28.0,67,30.12,10.0,North,8.1,-,N/A,,Mostly Cloudy,360,2013-03-06 19:14:00
2:35 PM,38.5,28.4,67,30.12,10.0,North,6.9,-,N/A,,Overcast,10,2013-03-06 19:35:00
2:55 PM,38.7,28.0,66,30.13,10.0,NNW,4.6,-,N/A,,Overcast,340,2013-03-06 19:55:00
3:14 PM,38.5,28.0,66,30.13,10.0,North,5.8,-,N/A,,Overcast,360,2013-03-06 20:14:00
3:35 PM,38.8,28.4,66,30.14,10.0,NNW,4.6,-,N/A,,Overcast,340,2013-03-06 20:35:00
3:55 PM,38.7,28.2,66,30.14,10.0,NNW,4.6,-,N/A,,Overcast,340,2013-03-06 20:55:00
4:14 PM,38.7,28.2,66,30.14,10.0,Calm,Calm,-,N/A,,Overcast,0,2013-03-06 21:14:00
4:35 PM,38.7,28.2,66,30.15,10.0,NNW,3.5,-,N/A,,Overcast,340,2013-03-06 21:35:00
4:55 PM,38.7,28.0,66,30.15,10.0,NNW,3.5,-,N/A,,Mostly Cloudy,340,2013-03-06 21:55:00
5:14 PM,38.5,28.0,66,30.15,10.0,Calm,Calm,-,N/A,,Mostly Cloudy,0,2013-03-06 22:14:00
5:35 PM,38.3,28.2,67,30.15,10.0,NNE,3.5,-,N/A,,Overcast,30,2013-03-06 22:35:00
5:55 PM,37.4,29.1,72,30.16,10.0,SE,4.6,-,N/A,,Overcast,140,2013-03-06 22:55:00
6:14 PM,36.0,29.8,78,30.17,10.0,SE,4.6,-,N/A,,Overcast,140,2013-03-06 23:14:00
6:35 PM,35.6,29.8,80,30.17,10.0,SE,3.5,-,N/A,,Overcast,140,2013-03-06 23:35:00
6:55 PM,35.2,29.5,80,30.17,10.0,SSE,4.6,-,N/A,,Overcast,160,2013-03-06 23:55:00
7:14 PM,34.9,29.5,81,30.18,10.0,SSE,3.5,-,N/A,,Overcast,150,2013-03-07 00:14:00
7:35 PM,34.7,29.3,81,30.18,10.0,Calm,Calm,-,N/A,,Overcast,0,2013-03-07 00:35:00
7:55 PM,34.7,29.5,81,30.18,10.0,Calm,Calm,-,N/A,,Overcast,0,2013-03-07 00:55:00
8:14 PM,34.3,29.3,82,30.18,10.0,Calm,Calm,-,N/A,,Overcast,0,2013-03-07 01:14:00
8:35 PM,34.2,29.3,82,30.18,10.0,Calm,Calm,-,N/A,,Overcast,0,2013-03-07 01:35:00
8:55 PM,33.8,29.3,84,30.19,10.0,Calm,Calm,-,N/A,,Overcast,0,2013-03-07 01:55:00
9:35 PM,33.4,29.1,84,30.20,10.0,Calm,Calm,-,N/A,,Overcast,0,2013-03-07 02:35:00
9:54 PM,33.3,29.3,85,30.20,10.0,Calm,Calm,-,N/A,,Overcast,0,2013-03-07 02:54:00
10:15 PM,33.4,29.3,85,30.20,10.0,Calm,Calm,-,N/A,,Overcast,0,2013-03-07 03:15:00
10:35 PM,32.9,29.3,87,30.20,10.0,Calm,Calm,-,N/A,,Overcast,0,2013-03-07 03:35:00
10:54 PM,32.0,30.0,92,30.21,10.0,Calm,Calm,-,N/A,,Overcast,0,2013-03-07 03:54:00
11:15 PM,32.0,30.0,92,30.21,10.0,Calm,Calm,-,N/A,,Overcast,0,2013-03-07 04:15:00
11:35 PM,32.0,30.0,92,30.20,10.0,Calm,Calm,-,N/A,,Overcast,0,2013-03-07 04:35:00
11:54 PM,32.0,29.8,92,30.20,10.0,Calm,Calm,-,N/A,,Overcast,0,2013-03-07 04:54:00